Theta_e
318 319 319 318 318 318 318 318 318 319 319 319 319 319 320 320 320 320 321 321 321 321 321 320 320 320 320 321 325 328 332 326 350 353 354 356 354 353 353 351 349 348 349 348
320 318 318 319 319 318 318 318 318 318 319 319 320 320 321 321 321 321 321 321 321 321 321 321 320 320 320 321 323 326 330 333 343 353 355 355 355 355 353 352 350 349 350 350
319 320 317 317 317 317 318 318 318 319 320 320 320 322 323 323 322 321 321 321 321 321 321 321 321 320 320 320 323 323 328 330 334 350 351 354 355 354 352 352 352 351 350 350
318 318 316 317 317 318 319 319 319 319 320 322 323 324 323 323 323 322 321 321 321 321 321 321 321 321 322 322 322 323 325 327 331 335 348 350 352 353 352 352 351 351 351 350
319 318 318 318 319 319 320 319 319 321 322 323 323 325 324 323 322 322 320 320 320 320 320 322 322 322 321 322 322 323 324 325 329 334 340 347 350 351 350 351 350 351 351 349
319 319 318 319 319 319 319 320 320 321 322 324 324 325 324 322 320 320 320 321 320 322 322 322 321 321 321 321 321 322 324 326 328 331 336 345 347 349 349 349 349 350 350 351
319 319 319 319 320 321 321 323 325 325 325 326 322 320 320 319 319 320 320 320 321 321 321 322 321 321 321 321 321 322 323 326 326 328 335 340 346 349 350 347 347 348 350 350
320 323 321 320 320 321 321 322 326 328 326 325 323 320 318 318 319 320 319 321 321 321 320 321 321 321 321 321 322 322 323 325 328 326 331 339 343 348 348 349 346 348 347 347
319 321 320 319 319 319 320 321 321 324 322 321 318 318 318 319 319 319 319 318 318 319 319 320 319 319 320 319 321 321 323 323 327 327 329 338 340 342 344 346 346 348 345 341
320 323 321 320 319 319 319 317 322 322 324 324 317 316 316 319 319 317 316 317 317 316 318 319 319 318 318 318 318 319 321 323 323 327 328 331 339 342 343 346 345 343 345 339
319 321 322 318 318 318 320 320 318 318 321 326 323 317 317 317 317 317 317 318 318 318 318 318 318 317 317 317 317 317 319 321 322 324 327 330 334 338 340 341 337 340 343 343
319 320 323 320 319 316 317 317 318 324 323 320 321 319 318 317 316 317 316 317 317 318 318 318 318 317 317 316 316 316 317 318 320 321 323 327 330 332 334 334 322 332 335 336
319 321 322 321 319 318 317 315 315 317 318 320 324 320 317 316 316 316 316 317 318 319 318 317 317 317 316 315 315 315 315 316 316 319 320 320 326 329 330 329 328 329 330 330
317 322 323 324 322 321 319 316 316 317 320 320 319 318 317 316 316 316 316 318 317 317 317 317 317 316 315 314 314 313 314 314 315 315 318 320 320 325 327 329 328 327 327 327
317 322 320 319 320 318 317 315 315 316 316 317 316 315 315 316 316 317 318 317 317 317 316 316 315 315 315 314 314 313 313 313 313 314 315 316 320 319 323 327 328 327 326 325
316 321 319 321 318 316 315 314 314 315 315 315 315 315 315 317 318 317 317 316 316 315 315 314 314 314 314 313 313 313 313 312 313 313 313 314 315 319 318 320 324 328 326 325
318 319 319 319 317 316 315 314 314 314 314 316 316 316 317 317 317 316 315 315 314 314 313 313 312 312 312 311 310 310 310 310 311 311 313 313 314 315 318 318 319 324 328 328
319 318 318 322 317 317 315 317 317 317 316 316 317 317 317 317 315 315 314 314 313 312 311 311 311 309 308 307 307 306 307 306 308 308 309 311 313 314 315 317 316 319 323 327
317 316 318 317 316 315 315 319 319 318 318 317 318 317 316 315 314 313 312 311 311 310 310 308 306 305 304 304 304 305 304 305 303 305 307 309 311 313 314 315 316 317 319 323
316 316 317 316 320 318 322 318 316 316 318 319 317 316 315 314 315 313 312 310 310 309 307 305 305 304 303 303 303 303 304 303 303 302 303 306 307 310 310 314 315 314 318 318
319 317 317 315 319 318 319 317 316 319 322 317 315 314 314 314 314 312 310 310 308 306 305 303 303 303 302 301 300 301 301 301 302 303 303 304 305 308 308 308 315 316 315 316
320 320 320 319 320 323 317 317 318 319 317 315 314 313 313 312 311 309 311 308 307 305 303 301 301 300 299 299 298 298 299 299 300 301 301 301 303 303 304 308 308 314 316 315
324 322 322 320 320 319 318 317 316 315 315 314 313 312 311 311 310 310 309 307 304 302 300 299 298 298 298 299 299 299 299 299 299 299 299 300 300 302 302 303 308 311 317 318
316 317 320 318 317 316 315 315 314 314 313 312 311 311 310 311 310 309 308 304 302 300 298 297 298 298 298 298 298 299 299 300 300 300 299 299 299 300 301 302 305 310 314 318
313 316 316 317 315 316 315 314 314 313 311 310 310 310 310 309 309 307 305 302 300 298 297 297 297 298 298 298 299 301 302 301 300 300 300 301 300 300 300 301 303 306 311 315
312 312 316 318 316 315 315 313 312 311 309 310 310 309 309 308 308 306 303 301 299 297 297 297 296 296 297 299 300 303 304 303 302 302 300 299 300 300 300 302 303 303 305 309
Wind_Speed
12 10 12 15 13 15 10 13 11 8 4 9 14 16 16 14 15 16 16 14 14 13 12 15 16 15 19 16 13 12 16 22 22 26 27 28 29 30 30 29 29 32 33 33
9 12 14 7 6 7 11 13 14 12 10 10 14 17 16 17 19 19 18 15 16 15 15 14 16 17 18 18 17 15 14 17 24 27 27 28 29 27 28 30 32 31 31 30
14 3 4 6 10 12 14 14 13 12 10 12 18 21 21 16 12 10 11 14 13 15 15 16 16 20 18 17 19 20 18 16 22 27 27 27 26 26 23 27 27 31 32 31
12 14 8 9 10 11 13 7 9 8 12 14 14 15 18 17 15 14 13 11 10 11 13 14 15 15 16 20 19 21 20 22 20 25 29 29 29 27 31 30 30 30 29 29
15 9 10 11 11 5 10 13 9 14 16 18 19 12 15 15 14 5 11 13 15 16 13 15 14 17 17 19 19 20 21 23 22 21 27 31 31 31 27 27 28 31 32 34
19 2 6 10 7 6 10 12 16 17 15 15 20 17 11 4 11 11 12 15 11 14 12 12 13 10 13 18 18 21 22 24 24 22 25 31 34 34 29 29 29 29 30 31
17 20 18 14 11 13 11 12 11 13 12 14 3 7 9 15 8 6 8 11 11 11 12 13 12 15 15 19 18 20 22 24 24 25 24 29 35 34 34 29 30 28 28 27
11 11 8 2 7 13 15 11 8 12 13 16 20 9 1 5 3 5 5 4 11 11 11 13 13 14 19 20 20 21 20 22 25 27 25 28 34 35 34 33 30 34 23 30
4 10 1 5 6 7 7 8 5 10 12 13 14 15 12 9 6 4 6 6 7 12 12 14 15 17 16 19 21 20 22 24 22 24 27 25 27 31 33 34 41 28 34 33
6 12 15 8 6 10 9 12 7 6 5 8 7 10 7 6 5 11 9 7 11 10 14 11 14 15 18 19 20 19 19 19 23 20 23 27 23 26 32 36 39 47 45 27
10 11 14 7 10 14 7 11 9 7 7 5 8 5 9 10 11 12 13 13 16 16 13 13 13 18 19 22 19 19 20 19 18 21 19 21 22 20 25 28 34 31 12 16
9 6 12 15 14 6 9 13 11 9 9 9 12 14 12 1 10 12 13 13 16 14 14 15 15 19 22 21 20 19 21 17 18 16 16 18 18 18 20 12 15 32 17 21
3 7 10 10 16 11 11 14 12 11 11 15 13 12 14 14 15 14 15 15 14 14 16 15 17 16 18 21 21 21 22 20 21 13 17 15 16 18 19 15 18 21 19 21
5 11 12 9 2 6 9 10 14 14 11 15 17 21 17 16 16 17 17 15 18 18 18 17 17 18 23 25 24 24 24 25 23 21 14 17 17 15 19 17 16 18 20 19
5 14 15 16 19 18 18 16 15 18 18 18 20 22 21 20 18 15 14 16 20 22 21 21 21 21 23 26 26 26 27 25 27 25 23 18 18 13 17 17 18 17 17 18
7 10 13 15 18 20 18 18 19 21 20 21 22 23 20 11 16 17 20 21 22 24 26 26 25 23 22 27 29 31 32 35 34 30 30 27 21 23 15 14 18 20 23 20
8 7 6 14 15 17 12 17 17 20 18 15 15 16 17 16 18 19 22 24 25 25 23 23 24 23 28 32 35 34 35 34 35 38 37 33 30 23 24 15 17 21 24 21
9 8 7 7 10 13 15 5 5 8 9 12 14 13 16 17 22 24 23 22 23 25 27 26 21 29 36 37 35 39 32 38 33 30 36 37 35 31 23 21 23 21 19 23
19 11 5 7 11 13 12 2 1 5 12 13 10 14 19 22 24 22 17 19 24 23 20 25 33 34 37 37 35 34 36 32 32 36 36 30 37 34 29 25 30 29 17 16
19 15 10 10 5 7 5 6 1 7 12 9 14 17 20 21 17 17 24 24 23 22 27 30 35 37 35 34 33 33 32 33 31 32 34 31 34 33 32 26 33 34 29 21
10 11 13 12 10 8 2 4 5 7 5 15 16 18 20 17 16 26 26 25 20 26 32 36 35 31 31 30 31 29 31 30 34 34 35 31 30 33 29 35 26 35 39 28
9 8 8 11 6 9 4 5 4 10 12 15 17 18 19 20 23 25 23 23 24 26 29 33 29 28 31 30 29 28 27 32 31 31 32 34 38 41 36 29 32 27 32 37
4 9 3 5 3 2 1 4 6 5 11 15 17 18 18 21 23 26 24 22 24 23 27 31 29 31 31 28 25 24 29 29 30 30 29 30 31 33 36 30 28 28 30 29
6 8 4 5 2 2 2 4 1 9 12 14 15 18 19 21 24 25 22 21 21 20 22 31 28 22 24 28 27 27 30 30 26 27 29 28 29 29 28 32 23 28 27 28
6 1 6 9 7 6 2 5 7 12 12 14 16 18 20 21 24 24 19 21 19 21 28 28 24 22 25 28 27 27 26 17 17 18 20 22 25 25 24 27 29 23 28 28
9 8 5 6 6 6 8 9 10 11 14 14 17 20 19 19 22 23 18 20 21 20 29 26 27 26 26 26 26 23 22 16 16 16 15 20 19 21 22 22 24 37 29 25
Wind_Direction
201 225 220 235 222 272 326 297 295 282 251 282 273 273 278 280 276 269 268 273 272 263 259 262 253 263 269 271 282 268 257 251 232 220 220 218 218 221 217 221 217 208 201 204
204 235 255 251 288 264 254 259 257 255 254 261 271 272 273 272 270 270 270 275 275 276 277 275 271 268 263 270 280 284 277 260 238 227 221 220 220 220 219 215 219 214 208 205
245 43 51 261 223 240 236 256 265 274 300 286 268 260 248 247 259 251 240 248 263 268 277 283 283 278 281 278 290 285 287 281 258 234 230 223 223 221 219 221 216 213 211 209
238 247 187 211 239 220 258 245 286 274 269 277 319 293 284 267 253 249 250 272 290 297 319 305 294 305 323 324 314 309 303 294 278 249 238 231 220 219 218 213 217 212 210 211
227 215 214 239 244 259 275 320 287 278 279 279 272 265 272 279 264 279 358 339 331 308 324 344 333 322 318 308 305 300 291 281 277 274 256 237 230 226 228 214 213 209 204 207
271 251 257 273 313 294 299 286 270 268 265 263 263 258 268 299 9 356 347 325 317 325 327 315 309 304 313 318 319 319 309 292 283 266 259 245 242 229 231 218 213 210 208 201
240 239 235 220 263 259 225 270 271 261 241 248 14 318 297 317 42 2 317 314 319 321 314 307 311 314 316 304 313 314 323 313 289 269 257 251 237 236 228 236 224 209 201 199
292 261 321 116 263 292 292 291 271 289 286 300 328 299 156 119 97 156 300 345 320 324 324 319 316 320 317 316 315 312 325 322 307 283 257 246 243 233 233 227 227 228 209 190
269 259 92 267 284 262 329 238 309 296 289 269 257 251 225 129 203 154 247 326 322 303 319 309 310 311 308 317 313 316 321 322 317 290 276 256 246 242 234 233 227 234 204 214
264 278 260 223 252 247 264 312 272 234 262 279 285 322 284 10 4 303 323 316 282 302 295 305 308 303 308 302 305 313 315 319 318 308 284 271 245 246 241 236 228 222 201 200
249 249 269 250 223 254 179 236 224 267 230 241 291 270 18 3 348 331 321 301 305 321 314 309 304 306 302 302 304 311 316 315 320 322 302 280 273 254 250 252 250 245 163 164
271 265 253 254 276 322 304 292 265 217 243 237 246 269 281 268 254 258 287 306 315 312 314 305 304 306 301 301 305 309 308 312 315 322 322 303 300 269 261 223 170 251 189 185
257 237 249 258 240 213 248 244 241 258 260 268 276 276 282 287 283 307 308 315 326 309 295 300 303 300 303 303 307 307 300 303 307 308 313 312 269 270 278 225 215 202 198 193
300 258 256 257 196 215 235 240 256 247 245 253 250 267 291 302 314 310 304 318 301 296 299 301 302 303 303 302 299 298 300 300 295 297 293 295 307 279 257 250 231 203 199 194
222 263 262 274 276 279 272 269 256 249 256 264 278 288 299 303 303 309 315 316 317 313 308 304 302 301 298 297 294 291 289 291 293 290 285 274 272 276 286 259 240 223 221 197
216 260 269 267 267 268 267 265 261 264 265 268 275 279 278 320 314 327 332 318 308 311 311 306 306 315 315 310 306 305 304 299 295 279 276 273 262 268 258 279 273 232 226 214
255 247 250 259 261 267 268 262 257 244 252 271 283 309 327 318 335 328 318 313 308 302 307 321 316 314 310 307 304 304 300 299 292 292 278 261 260 246 257 239 259 250 241 215
262 261 244 270 282 263 266 94 334 314 296 278 281 294 339 336 322 312 311 314 323 318 317 315 312 306 299 295 294 291 288 291 284 286 286 274 265 247 234 235 259 253 248 232
233 233 265 254 261 260 259 145 335 358 307 311 352 343 327 320 315 302 328 329 317 313 307 298 296 294 294 290 289 285 281 266 280 276 267 272 267 271 233 227 221 253 240 245
213 227 245 267 264 258 96 141 13 303 271 36 344 327 321 324 310 312 331 314 312 312 311 306 298 294 290 292 290 281 273 270 259 260 265 268 261 266 268 237 210 220 233 229
206 202 225 238 248 274 51 19 306 262 8 333 332 324 323 317 314 312 313 309 313 318 310 306 301 296 294 294 294 287 278 270 267 259 254 247 257 259 259 259 238 209 217 215
197 197 217 232 244 246 89 272 310 354 334 332 325 327 324 317 312 309 308 318 327 316 313 311 306 303 301 294 284 281 277 277 273 266 258 255 249 253 260 259 251 241 211 207
232 222 244 219 232 119 269 302 341 315 321 329 324 326 322 314 309 321 319 332 319 314 313 314 309 304 302 301 293 283 281 279 274 264 257 250 244 239 236 252 241 243 209 200
245 236 242 294 13 92 215 338 292 332 329 324 323 326 320 319 322 319 327 323 316 316 317 314 312 310 310 311 305 294 288 280 272 261 248 242 237 234 232 229 249 234 226 205
297 212 264 270 277 331 69 38 345 329 325 324 330 327 324 323 323 325 330 319 319 318 317 319 317 314 311 312 307 305 302 298 284 280 266 247 222 224 223 228 227 244 233 224
274 268 281 300 358 313 322 352 334 332 329 331 332 328 327 332 325 334 327 321 323 321 322 325 324 320 319 318 320 311 318 312 294 287 281 240 215 206 210 214 219 228 244 242